Theta_e
313 314 315 314 314 313 312 311 310 311 310 309 309 309 309 308 308 308 307 307 307 305 305 306 304 301 300 300 300 299 297 298 297 294 295 296 297 299 300 301 301 301 301
311 310 311 311 313 311 310 309 310 310 310 309 309 308 308 308 308 308 307 306 306 303 303 301 299 299 297 297 296 295 294 294 296 293 293 296 298 298 298 298 298 298 298
309 309 308 308 308 308 309 309 310 309 308 308 307 305 304 304 303 303 303 302 300 300 301 300 298 296 295 295 295 295 294 295 295 295 296 297 296 297 296 297 296 296 297
305 305 304 304 304 303 303 303 303 302 301 299 299 298 297 297 297 298 297 296 297 296 296 297 297 297 294 295 295 294 295 295 295 295 294 294 295 296 295 293 293 295 295
301 300 299 299 300 300 300 300 300 299 298 298 297 297 297 296 295 295 295 295 296 296 296 295 295 298 299 299 297 297 296 295 294 293 293 293 293 292 291 293 292 294 296
300 299 299 299 300 298 298 298 297 297 297 298 297 298 298 299 301 299 296 294 294 295 295 296 297 300 303 303 301 298 297 295 294 294 293 292 291 292 294 293 293 293 290
296 296 297 298 297 296 296 297 296 296 297 297 297 298 298 298 300 299 295 292 292 293 293 294 293 295 296 297 301 299 297 297 296 295 293 292 291 294 294 293 293 293 292
294 294 294 295 294 294 295 294 295 295 295 296 296 297 297 297 299 297 294 291 292 292 292 292 292 292 294 295 294 294 294 294 296 296 294 294 294 295 295 294 293 292 292
293 293 293 294 293 293 293 293 293 294 294 294 295 296 295 296 297 295 292 291 291 291 291 293 293 293 293 297 294 293 293 294 296 296 295 294 294 293 294 293 290 289 288
293 293 293 293 293 292 292 292 292 293 292 292 292 294 296 295 296 294 292 291 291 291 291 292 294 295 296 298 295 293 292 291 292 291 291 291 291 291 291 291 290 287 286
293 293 292 293 292 292 291 291 291 292 291 290 290 291 292 294 296 296 294 292 291 291 291 292 293 295 296 297 295 294 293 291 290 291 291 291 291 290 291 291 291 289 286
293 292 292 292 292 291 291 289 289 290 288 288 289 289 290 291 293 295 295 295 294 292 291 292 293 294 294 294 293 294 294 291 291 291 289 288 289 289 291 291 291 291 291
292 292 292 292 292 291 290 288 287 288 288 287 288 288 288 290 292 295 295 294 295 293 292 292 292 292 292 291 292 292 292 291 289 288 287 288 289 290 291 290 292 292 292
292 292 291 291 290 290 289 289 288 287 287 287 287 287 288 289 290 291 291 292 293 292 292 291 291 290 290 291 291 291 290 290 289 290 289 290 291 291 290 291 290 290 290
292 291 291 291 290 288 289 288 288 289 289 288 288 288 287 287 288 290 291 292 293 292 291 289 287 288 287 288 288 289 290 290 289 290 289 289 289 290 289 290 290 289 287
291 291 290 291 289 288 287 287 290 290 292 292 291 290 289 290 291 293 294 294 293 292 290 287 286 286 286 286 287 287 288 289 289 289 289 289 288 288 288 289 289 288 286
293 292 292 291 289 287 287 287 287 290 293 294 293 293 291 292 293 292 292 293 292 291 288 286 286 286 286 287 287 287 287 288 289 288 288 288 288 288 288 287 287 287 287
294 294 292 290 290 288 287 287 288 288 288 289 293 292 292 293 292 291 291 292 289 289 288 287 286 287 287 287 288 288 288 288 288 288 288 288 289 288 287 287 287 286 286
293 294 292 291 290 289 288 287 287 288 288 288 289 292 293 292 291 290 291 288 287 287 287 287 288 288 288 288 288 288 289 288 289 288 289 288 288 287 286 287 286 287 288
294 295 292 290 289 288 287 286 287 287 287 288 288 289 289 290 288 287 288 287 287 287 287 287 288 288 287 287 287 287 287 287 286 286 287 287 287 287 287 287 287 286 286
293 294 292 289 289 287 287 287 287 287 287 287 288 288 290 288 287 286 286 286 287 287 287 287 287 288 288 287 287 286 285 285 286 286 286 286 287 286 287 287 288 287 287
293 293 290 289 289 287 287 287 287 286 286 286 286 287 291 289 287 286 286 286 287 288 288 287 286 287 288 287 287 286 286 285 286 286 287 287 287 286 286 286 286 286 286
293 292 289 289 288 289 287 286 286 286 285 285 286 285 288 288 286 286 286 286 287 287 288 288 286 286 287 286 287 287 286 286 286 287 287 287 286 286 286 286 286 285 285
292 291 289 288 287 287 286 286 286 286 285 285 285 285 286 287 286 286 286 286 286 286 286 286 286 285 285 286 287 288 288 288 287 287 287 287 286 286 286 286 286 285 286
291 290 288 288 288 287 287 286 286 285 285 285 285 285 285 286 285 285 285 285 286 285 285 285 285 285 285 285 286 286 287 287 287 287 288 287 287 286 286 286 286 286 286
290 289 288 288 287 287 287 286 286 286 286 285 285 285 285 285 285 285 285 285 284 285 284 285 285 285 285 286 286 286 287 287 287 288 289 288 287 286 286 286 286 286 285
Wind_Speed
7 6 8 11 12 10 9 8 10 9 9 8 7 7 7 6 6 6 6 5 5 4 3 4 3 3 3 2 2 4 3 2 3 1 2 1 2 4 5 5 5 6 5
8 10 9 9 9 9 10 10 11 9 8 9 9 8 6 5 4 5 4 3 5 5 5 5 6 6 5 4 3 5 3 4 3 3 1 1 2 4 5 6 5 5 5
8 11 9 9 9 8 8 12 12 11 10 8 9 8 7 6 4 4 5 6 5 4 5 6 6 6 6 4 4 6 4 4 4 2 2 2 1 2 3 4 5 7 6
8 10 9 10 10 9 9 10 11 10 9 9 10 9 7 7 6 6 6 6 8 7 6 6 6 6 6 7 6 6 4 5 4 3 2 1 1 2 3 5 6 5 7
10 8 8 9 9 9 11 12 12 12 10 10 11 10 9 7 6 6 6 7 8 8 7 7 6 8 9 7 4 5 4 4 3 3 1 0 2 3 5 4 5 6 6
11 10 8 9 9 10 12 12 13 11 11 11 11 11 11 8 15 13 9 8 8 8 7 8 8 9 8 10 10 8 5 4 3 1 0 2 3 4 3 4 5 6 7
11 10 10 10 11 11 12 13 11 11 11 11 11 11 11 10 15 12 11 7 7 7 6 6 6 6 8 6 7 7 4 3 3 2 1 2 3 3 3 6 7 8 9
10 10 10 11 12 11 11 11 10 9 10 9 9 10 11 10 14 13 12 8 7 7 6 6 5 5 3 2 3 3 2 2 3 2 0 2 4 4 5 5 7 8 7
11 11 10 11 11 10 10 10 8 9 9 8 8 10 11 9 11 12 9 6 7 7 5 5 4 3 3 1 4 4 3 3 3 7 6 6 6 7 7 4 4 6 7
11 11 10 10 11 11 10 10 6 7 8 7 8 8 11 9 10 11 8 5 6 4 4 4 5 4 4 3 4 3 4 3 2 3 6 6 5 5 5 4 3 4 5
10 11 10 9 10 10 9 7 8 8 8 7 8 5 6 5 7 8 7 4 3 3 3 2 2 6 5 4 5 2 3 4 4 5 2 3 4 5 4 3 2 3 4
12 12 11 11 8 8 10 8 8 8 8 7 7 5 3 3 1 3 6 4 5 2 2 1 2 4 3 4 1 4 8 6 3 1 3 3 4 4 5 3 3 4 5
13 12 11 11 10 10 10 9 7 7 6 6 5 5 4 2 1 4 4 2 3 3 2 2 3 5 5 5 6 1 6 1 1 1 1 1 2 3 5 4 5 6 7
13 12 11 11 10 9 6 6 6 6 6 6 6 5 4 3 3 2 1 1 1 2 1 1 2 3 2 2 2 3 2 1 2 2 2 3 3 3 4 3 5 5 6
12 11 10 8 10 9 7 7 7 6 7 7 6 6 6 5 5 6 5 3 3 2 3 2 1 2 1 1 0 1 1 2 2 2 3 4 4 4 5 5 5 5 5
12 10 9 8 7 7 7 5 7 7 12 10 10 8 5 5 9 10 8 6 6 4 2 2 2 1 2 2 2 1 2 2 1 2 4 4 4 5 6 6 5 5 6
13 12 9 10 9 9 8 8 8 6 12 11 11 12 12 9 11 7 6 5 6 5 2 2 2 2 2 3 3 3 3 3 3 3 4 5 5 5 8 7 7 6 8
13 21 11 9 9 9 8 8 7 8 9 7 10 10 11 11 9 7 4 6 4 3 2 2 2 2 3 4 4 4 3 4 4 5 5 6 4 6 5 8 7 9 8
13 11 10 9 9 10 8 8 8 7 7 7 5 9 11 10 8 6 4 3 3 2 2 2 2 2 2 2 2 3 4 4 5 5 2 4 6 6 8 8 8 12 9
11 17 15 10 9 9 8 8 8 8 8 7 7 7 5 6 6 4 4 3 3 3 3 2 2 3 3 2 3 3 4 4 5 5 6 6 7 7 8 8 7 6 8
10 11 16 9 10 10 9 9 9 8 8 8 7 8 12 7 6 5 4 4 3 3 3 3 3 4 4 3 3 3 4 5 5 5 6 6 7 7 8 8 6 7 10
10 10 11 11 9 10 9 9 8 8 7 8 6 7 15 7 5 5 4 4 3 3 2 3 3 3 2 3 4 5 6 6 6 6 6 7 7 7 6 8 9 10 10
11 12 10 9 8 12 9 8 8 7 7 7 7 6 7 7 6 5 5 4 3 3 2 2 3 2 3 4 4 5 5 5 6 6 6 6 6 8 8 9 10 10 9
10 11 11 9 9 9 9 9 7 9 7 7 7 7 7 7 7 6 5 4 4 3 2 2 2 3 4 4 4 5 4 5 6 7 10 9 9 10 9 9 9 11 10
10 10 10 10 10 9 11 9 8 7 7 7 7 7 6 6 6 6 5 5 4 3 3 2 2 4 5 6 6 7 8 11 10 11 8 9 10 12 9 8 8 9 10
10 10 10 10 10 10 9 9 8 8 8 7 6 6 6 7 6 6 6 6 4 4 3 2 3 5 6 5 6 8 11 12 11 14 9 7 7 8 9 11 14 10 11
Wind_Direction
42 58 98 115 113 106 107 123 108 108 106 95 85 78 73 72 76 87 92 106 109 122 126 152 142 104 87 92 80 71 79 90 86 86 78 34 51 23 15 4 6 358 344
73 64 52 59 85 111 113 104 111 111 111 121 116 99 85 79 91 110 115 127 153 155 151 136 131 119 107 112 101 98 81 40 103 105 56 56 41 19 0 347 351 340 332
84 90 79 78 77 66 80 107 114 114 116 111 103 102 117 116 112 119 127 127 118 124 123 120 122 118 115 103 98 102 87 86 62 91 84 28 14 17 337 324 318 315 320
90 85 95 89 91 97 97 85 92 95 95 96 94 91 74 77 81 81 86 92 91 80 79 93 114 125 128 126 112 107 114 112 98 99 98 61 336 348 307 310 316 319 309
99 98 95 92 93 97 92 95 91 86 88 92 95 90 91 82 79 80 81 89 95 90 79 93 106 117 116 119 118 121 126 106 101 90 67 356 304 314 323 329 303 314 300
121 120 111 106 109 102 96 91 91 103 104 101 97 96 91 88 90 86 90 97 95 96 95 76 69 75 95 110 111 120 123 124 121 136 345 286 310 301 305 316 309 332 334
122 121 122 122 111 103 103 106 112 108 107 101 97 94 93 90 88 86 86 83 87 86 85 85 82 66 61 59 94 88 67 67 85 129 324 318 296 320 304 320 329 317 315
131 130 129 124 117 114 115 116 116 112 105 104 100 97 90 79 87 92 90 87 83 79 79 77 83 74 63 108 114 134 129 67 69 106 66 321 271 322 325 327 325 315 306
147 144 139 132 128 129 127 128 122 120 120 119 115 101 94 91 93 97 97 93 84 74 62 46 51 30 341 285 167 195 201 123 58 73 60 32 23 357 22 335 347 333 327
160 154 148 145 144 144 142 139 134 132 125 121 111 111 116 109 107 112 112 110 104 94 70 41 17 348 314 358 190 198 189 138 103 52 28 31 27 24 33 33 354 319 324
158 153 155 156 151 147 142 142 140 133 129 124 119 113 114 115 121 123 118 97 101 95 75 53 3 326 360 120 108 132 134 116 83 69 54 37 38 36 30 21 317 270 278
160 162 163 158 153 153 145 141 139 138 134 135 136 132 123 103 47 133 117 114 153 130 135 119 339 335 45 15 5 72 108 111 88 71 22 20 8 6 0 331 288 256 243
165 167 165 162 159 158 152 148 144 150 150 154 161 159 157 131 69 145 100 77 103 131 143 137 59 12 359 354 335 321 122 128 326 278 328 317 327 318 308 302 284 271 276
170 170 166 167 162 161 154 159 154 162 163 167 172 175 169 170 175 164 158 151 174 137 93 114 107 38 25 353 307 93 58 271 264 278 295 313 309 312 311 312 299 317 311
175 173 174 172 167 165 173 173 176 182 178 176 185 177 175 192 202 196 189 204 221 195 139 142 157 113 298 232 299 347 331 306 318 319 298 298 296 298 298 306 302 309 293
174 173 174 170 169 172 168 153 189 180 186 185 179 176 184 179 182 187 206 182 162 129 135 178 203 210 234 236 224 261 266 292 289 321 304 306 302 303 304 300 307 296 301
176 172 170 172 174 171 175 170 161 174 181 180 178 177 175 178 178 181 175 184 177 153 180 203 226 235 250 238 235 246 259 254 263 269 279 281 285 294 306 308 311 300 296
179 178 174 175 175 171 173 174 166 165 167 170 176 170 172 170 172 178 186 163 163 159 176 215 249 249 251 256 252 248 242 257 261 271 276 289 285 293 302 308 308 304 299
177 174 174 174 174 171 163 167 170 167 166 164 160 172 175 173 174 180 192 175 179 193 198 219 249 257 289 281 309 298 274 281 289 293 288 304 301 296 295 298 295 301 301
180 180 172 166 164 162 164 165 170 174 174 176 183 179 169 165 186 177 174 176 188 200 206 216 224 219 236 246 273 291 291 295 301 301 297 299 297 290 290 292 288 287 304
176 173 170 163 168 171 168 172 170 172 177 184 192 185 183 186 193 191 193 201 208 219 227 239 252 265 266 260 271 286 295 293 291 287 287 288 288 286 292 292 289 292 296
171 168 168 174 168 167 168 165 166 169 172 181 184 191 202 198 193 190 193 200 202 209 212 240 265 281 259 268 285 285 282 284 285 284 283 289 291 292 298 295 294 297 297
172 171 168 166 163 161 156 159 159 163 167 176 179 181 192 187 186 186 190 187 186 190 198 217 244 257 283 277 274 273 283 284 285 287 287 283 287 290 293 295 296 294 291
164 165 164 157 154 152 151 153 153 156 159 172 181 181 185 184 182 182 179 177 182 186 195 227 230 250 273 285 280 278 282 296 295 288 290 286 291 297 291 286 283 281 280
156 157 153 149 152 151 148 145 143 150 168 183 178 181 178 176 173 175 176 181 185 192 205 222 244 268 276 279 288 293 288 285 284 286 284 279 279 284 286 290 295 298 287
143 143 142 146 149 152 146 145 141 166 186 177 175 171 172 176 175 176 179 182 186 198 206 237 266 262 285 282 296 298 289 293 290 287 290 281 285 293 299 301 300 298 299